sat.trackr.live / text

‹ back to catalog

STARLINK-32920

NORAD 62925 · 2025-027U

PAYLOAD ACTIVE UNKNOWN

§ Identity

Operator
Country
US
Launch date
2025-02-08
Launch site
AFETR
Launch vehicle
Mass (kg)
RCS (m²)

Purposes: comms

External: N2YO · Heavens-Above · Gunter

§ Orbital elements

Epoch: 2026-09-21T06:22:31.652832Z

Period
94.27 min
Inclination
42.9999°
Eccentricity
0.0001112
Mean motion
15.27582758 rev/d
Perigee alt
482.3 km
Apogee alt
483.8 km
Semi-major
6,861.2 km
B*
4.9891e-4
RAAN
104.3110°
Arg perigee
272.6066°
Mean anomaly
87.4659°
Rev number
9,145

§ Raw data

STARLINK-329201 62925U 25027U   26264.26564413  .00013493  00000+0  49891-3 0  99942 62925  42.9999 104.3110 0001112 272.6066  87.4659 15.27582758 91450

JSON: /api/v1/satellites/62925 · /tle

For live sub-satellite position, see the globe view (requires WebGL).

§ Visibility from observer

Set your observer location to see the next 7 days of passes ≥ 10°. The values pass through the URL so the page stays shareable.

No JS? Fill the form by hand. The geolocation button needs JavaScript.